{"data":{"norad_id":47504,"intl_designator":"2021-006CV","name":"ION SCV-002","alt_names":[],"object_type":"PAYLOAD","status":"ACTIVE","operator":null,"country":"IT","launch_date":"2021-01-24","launch_site_code":"AFETR","launch_vehicle":null,"mission":null,"orbit_class":"UNKNOWN","rcs_meters":null,"size_class":null,"mass_kg":null,"dimensions":null,"purposes":[],"wikipedia_slug":null,"has_3d_model":false,"image_url":null,"decayed_at":null,"tle_current":{"epoch":"2026-09-20T22:54:57.558240Z","epoch_age_seconds":40063,"freshness":"FRESH","line1":"1 47504U 21006CV  26263.95483285  .00009394  00000+0  19319-3 0  9992","line2":"2 47504  97.1181 263.9625 0012453 120.8371 239.4106 15.46093736314815","mean_motion":15.46093736,"eccentricity":0.0012453,"inclination_deg":97.1181,"raan_deg":263.9625,"arg_perigee_deg":120.8371,"mean_anomaly_deg":239.4106,"bstar":0.00019319,"rev_number":31481,"period_min":93.137949302189,"perigee_km":419.69035064481,"apogee_km":436.64212949453,"semimajor_km":6806.3032400697,"source":"CELESTRAK","updated_at":"2026-09-21T09:00:07.526220Z"}}}